Regional Weather Roundup
Issued by NWS

Home | Current Version | Previous Version | Text Only | Print | Product List | Glossary Off
Versions: 1 2 3 4 5 6 7 8 9 10 11 12 13 14 15 16 17 18 19 20 21 22 23 24 25 26 27 28 29 30 31 32 33 34 35 36 37 38 39 40 41 42 43 44 45 46 47 48 49 50

000
ASUS45 KBOU 300810
RWRCO

WEATHER ROUNDUP FOR COLORADO
NATIONAL WEATHER SERVICE DENVER/BOULDER CO
200 AM MDT TUE JUN 30 2015

NOTE: "FAIR" INDICATES FEW OR NO CLOUDS BELOW 12000 FEET WITH NO
SIGNIFICANT WEATHER AND/OR OBSTRUCTIONS TO VISIBILITY.

COZ001>005-013-030-031-300900-
...NORTHWEST COLORADO...

CITY           SKY/WX    TMP DP  RH WIND       PRES   REMARKS
CRAIG          PTCLDY    56  46  69 CALM      30.24S
HAYDEN         PTCLDY    63  43  48 E5        30.27S
MEEKER         PTCLDY    57  44  62 NE7       30.25F
MOUNT WERNER   NOT AVBL
STEAMBOAT SPGS PTCLDY    59  46  63 CALM      30.30F
WALDEN         CLEAR     46  41  81 SE8       30.41S
$$

COZ006>008-011-300900-
...WEST CENTRAL VALLEYS...

CITY           SKY/WX    TMP DP  RH WIND       PRES   REMARKS
GRAND JUNCTION PTCLDY    71  45  39 SE5       30.08S
MONTROSE       CLEAR     68  46  45 CALM      30.20R
EAGLE          PTCLDY    61  45  55 E6        30.31R
RIFLE          PTCLDY    67  42  40 CALM      30.17S
DELTA          CLEAR     74  40  28 CALM      30.14S
NUCLA          CLEAR     68  45  42 SE9       30.22S
$$

COZ017>023-064>068-300900-
...SOUTHWEST COLORADO...

CITY           SKY/WX    TMP DP  RH WIND       PRES   REMARKS
DURANGO        CLEAR     55  51  86 N7        30.30R
CORTEZ         CLEAR     61  48  62 VRB6      30.21S
PAGOSA SPRINGS CLEAR     58  46  63 CALM      30.39S
TELLURIDE      CLEAR     61  40  46 SE7       30.50R
WOLF CREEK PAS NOT AVBL
$$

COZ009-010-012-014-032>034-037-058>063-300900-
...CENTRAL COLORADO...

CITY           SKY/WX    TMP DP  RH WIND       PRES   REMARKS
ASPEN          PTCLDY    59  43  55 SW8       30.36F
BUENA VISTA    PTCLDY    53  48  84 W3        30.44F
COPPER MTN     CLEAR     54  39  58 S13       30.72S
BERTHOUD PASS  FAIR      45  36  70 NW15G29   30.75F
COTTONWOOD PAS NOT AVBL
GUNNISON       CLEAR     57  45  62 N7        30.42S
KREMMLING      PTCLDY    54  43  66 CALM      30.38S
LEADVILLE      PTCLDY    48  41  76 E5        30.56S
MONARCH PASS   CLEAR     48  41  76 E9        30.82F
SALIDA         PTCLDY    56  51  82 W3        30.47F
SUNLIGHT       PTCLDY    59  41  51 NE3       30.64S
WILKERSON PASS CLEAR     50  43  76 S3        30.69S
$$

COZ069>075-300900-
...SAN LUIS VALLEY/SANGRE DE CRISTO MOUNTAINS...

CITY           SKY/WX    TMP DP  RH WIND       PRES   REMARKS
ALAMOSA        CLEAR     58  46  64 CALM      30.39S
LA VETA PASS   CLEAR     54  43  66 MISG      30.58F
SAGUACHE       CLEAR     54  48  82 N10       30.43S
$$

COZ035-036-038>040-300900-
...NORTHERN COLORADO FRONT RANGE...

CITY           SKY/WX    TMP DP  RH WIND       PRES   REMARKS
DENVER INTL AP PTCLDY    67  53  61 SW10      30.19F
DMNS CITY PARK   N/A     66  51  59 SE8       30.19F
AURORA         PTCLDY    65  51  60 S9        30.23F
FRONT RANGE AP CLEAR     66  55  68 S9        30.21F
ERIE MUNI ARPT CLEAR     62  51  68 S3        30.17F
BOULDER MUN AP CLEAR     72  45  37 SW6       30.18F
CENTENNIAL     PTCLDY    61  51  70 S7        30.23F
BROOMFIELD     CLEAR     64  48  55 W9        30.21F
FORT COLLINS   PTCLDY    66  54  63 N6        30.19S
LONGMONT       PTCLDY    64  51  62 W5        30.19S
$$

COZ041-046-047-076>085-087-088-300900-
...PIKES PEAK/PALMER DIVIDE AND SOUTHERN FOOTHILLS...

CITY           SKY/WX    TMP DP  RH WIND       PRES   REMARKS
COLO. SPRINGS  PTCLDY    61  52  72 CALM      30.29F
A. F. ACADEMY  CLEAR     56  49  78 N8        30.31F
ELLICOTT       CLEAR    N/A N/A N/A CALM      30.28F
FALCON         CLEAR     58  49  70 W5        30.34F
FORT CARSON    CLEAR     64  53  66 NW6       30.25F
LIMON          CLEAR     56  55  97 NW6       30.22F
MONUMENT HILL  CLEAR     57  48  72 MISG      30.34F
TRINIDAD       CLEAR     65  52  62 SW12      30.26F
$$

COZ042>045-048>051-090-091-300900-
...NORTHEAST COLORADO...

CITY           SKY/WX    TMP DP  RH WIND       PRES   REMARKS
GREELEY ARPT   CLEAR     61  55  82 CALM      30.16S
AKRON          CLEAR     66  54  65 SW10      30.15F
BURLINGTON     CLEAR     62  53  72 SW8       30.14F
WRAY           PTCLDY    62  56  82 W5        30.10S
STERLING       CLEAR     61  59  94 SW3       30.11S
HOLYOKE        PTCLDY    64  57  77 W6        30.09F
FORT MORGAN    CLEAR     63   4   9 W3        30.15S
$$

COZ086-089-092>099-300900-
...SOUTHEAST COLORADO...

CITY           SKY/WX    TMP DP  RH WIND       PRES   REMARKS
PUEBLO         CLEAR     66  51  58 NW5       30.18F
LA JUNTA       CLEAR     67  54  63 CALM      30.14F
LAMAR          CLEAR     59  56  89 SW5       30.10F
SPRINGFIELD      N/A     61  53  75 SW6       30.17F
$$



USA.gov is the U.S. government's official web portal to all federal, state and local government web resources and services.